FW3021 Weather Reports


Display with metric or nautical units.
time (UTC)temp
F
wind
direction
speed
MPH
gust
MPH
rain 1hr
in
rain 24hr
in
rain mn
in
humidity
%
barometer
mb
20260510073517 38 45 1.0 4.0 0.00 0.00 0.00 59 1013.1
20260510072516 38 315 2.0 6.0 0.00 0.00 0.00 59 1013.1
20260510071517 38 0 3.0 6.0 0.00 0.00 0.00 59 1013.0
20260510070517 38 0 3.0 8.0 0.00 0.00 0.00 59 1013.0
20260510065517 38 0 3.0 6.0 0.00 0.00 0.00 59 1012.7
20260510064516 38 315 2.0 5.0 0.00 0.00 0.00 60 1012.9
20260510063516 38 315 2.0 6.0 0.00 0.00 0.00 60 1012.7
20260510062516 37 23 2.0 6.0 0.00 0.00 0.00 62 1012.7
20260510061516 36 293 2.0 4.0 0.00 0.00 0.00 63 1012.7
20260510060517 36 293 1.0 4.0 0.00 0.00 0.00 63 1012.6
20260510055537 35 293 2.0 5.0 0.00 0.00 0.00 64 1012.5
20260510054516 34 315 2.0 3.0 0.00 0.00 0.00 64 1012.4
20260510053516 34 315 3.0 4.0 0.00 0.00 0.00 64 1012.2
20260510052516 34 315 2.0 3.0 0.00 0.00 0.00 64 1012.1
20260510051516 34 23 2.0 4.0 0.00 0.00 0.00 65 1012.2
20260510050516 34 23 2.0 3.0 0.00 0.00 0.00 63 1012.2
20260510045516 35 23 2.0 3.0 0.00 0.00 0.00 62 1012.0
20260510044516 36 23 2.0 3.0 0.00 0.00 0.00 61 1012.0
20260510043516 37 23 1.0 2.0 0.00 0.00 0.00 59 1012.0
20260510042516 38 0.0 2.0 0.00 0.00 0.00 57 1012.0
20260510041517 39 23 1.0 3.0 0.00 0.00 0.00 56 1012.0
20260510040516 40 293 1.0 4.0 0.00 0.00 0.00 56 1011.9
20260510035517 40 0.0 0.0 0.00 0.00 0.00 54 1012.0
20260510034516 41 0.0 2.0 0.00 0.00 0.00 51 1011.9
20260510033516 42 0.0 2.0 0.00 0.00 0.00 50 1011.7
20260510032516 43 270 1.0 2.0 0.00 0.00 0.00 49 1011.8
20260510031517 43 315 1.0 2.0 0.00 0.00 0.00 49 1011.9
20260510030516 43 270 1.0 4.0 0.00 0.00 0.00 48 1011.9
20260510025516 44 0 4.0 8.0 0.00 0.00 0.00 47 1011.7
20260510024516 44 45 4.0 11.0 0.00 0.00 0.00 46 1011.6
20260510023516 42 0 5.0 14.0 0.00 0.00 0.00 43 1011.6
20260510022516 44 270 2.0 3.0 0.00 0.00 0.00 38 1011.1
20260510021516 44 0.0 1.0 0.00 0.00 0.00 36 1010.9
20260510020517 45 0.0 0.0 0.00 0.00 0.00 34 1010.8
20260510015516 46 270 1.0 3.0 0.00 0.00 0.00 33 1010.6
20260510014517 46 0 1.0 7.0 0.00 0.00 0.00 32 1010.5
20260510013516 46 23 2.0 7.0 0.00 0.00 0.00 32 1010.4
20260510012536 47 225 1.0 3.0 0.00 0.00 0.00 32 1010.3
20260510011536 47 293 1.0 6.0 0.00 0.00 0.00 31 1010.0
20260510010516 48 270 2.0 13.0 0.00 0.00 0.00 31 1010.0
20260510005516 48 315 1.0 7.0 0.00 0.00 0.00 31 1009.8
20260510004516 48 0.0 2.0 0.00 0.00 0.00 31 1009.7
20260510003516 48 315 2.0 8.0 0.00 0.00 0.00 31 1009.7
20260510002516 48 225 3.0 10.0 0.00 0.00 0.00 30 1009.5
20260510001517 49 270 3.0 8.0 0.00 0.00 0.00 29 1009.5
20260510000516 49 0 4.0 10.0 0.00 0.00 0.00 29 1009.2
20260509235536 50 0 3.0 10.0 0.00 0.00 0.00 28 1009.2
20260509234516 50 0 7.0 19.0 0.00 0.00 0.00 27 1009.1
20260509233516 50 0 6.0 14.0 0.00 0.00 0.00 28 1009.0
20260509232516 51 0 8.0 19.0 0.00 0.00 0.00 27 1009.0
20260509231516 52 0 6.0 12.0 0.00 0.00 0.00 26 1008.8
20260509230516 52 0 7.0 13.0 0.00 0.00 0.00 25 1008.8
20260509225556 52 0 6.0 19.0 0.00 0.00 0.00 26 1008.6
20260509224516 52 23 3.0 11.0 0.00 0.00 0.00 26 1008.7
20260509223516 52 0 5.0 16.0 0.00 0.00 0.00 27 1008.6
20260509222515 51 0 4.0 13.0 0.00 0.00 0.00 28 1008.3
20260509221516 51 0 5.0 14.0 0.00 0.00 0.00 27 1008.2
20260509220516 51 0 7.0 18.0 0.00 0.00 0.00 28 1008.2
20260509215516 51 0 5.0 11.0 0.00 0.00 0.00 29 1008.2
20260509214516 51 0 8.0 17.0 0.00 0.00 0.00 29 1008.1
20260509213515 51 0 7.0 16.0 0.00 0.00 0.00 30 1008.0
20260509212515 51 0 5.0 12.0 0.00 0.00 0.00 30 1008.0
20260509211516 51 0 4.0 12.0 0.00 0.00 0.00 30 1007.9
20260509210535 51 0 6.0 13.0 0.00 0.00 0.00 28 1007.8
20260509205516 50 0 6.0 19.0 0.00 0.00 0.00 29 1007.8
20260509204515 51 0 5.0 13.0 0.00 0.00 0.00 31 1007.8
20260509203516 51 0 8.0 17.0 0.00 0.00 0.00 30 1007.6
20260509202515 51 68 5.0 13.0 0.00 0.00 0.00 32 1007.6
20260509201515 50 0 6.0 17.0 0.00 0.00 0.00 32 1007.4
20260509200515 50 0 8.0 18.0 0.00 0.00 0.00 31 1007.3
20260509195517 50 0 3.0 8.0 0.00 0.00 0.00 30 1007.1
20260509194538 51 113 4.0 12.0 0.00 0.00 0.00 29 1007.0
20260509193517 50 0 6.0 15.0 0.00 0.00 0.00 31 1007.2
20260509192517 51 0 5.0 13.0 0.00 0.00 0.00 30 1007.1
20260509191517 50 45 6.0 13.0 0.00 0.00 0.00 33 1007.1
20260509190538 47 45 5.0 11.0 0.00 0.00 0.00 35 1007.3
20260509185537 47 0 5.0 12.0 0.00 0.00 0.00 33 1007.2
20260509184558 48 0 4.0 11.0 0.00 0.00 0.00 32 1007.0
20260509183517 48 0 8.0 24.0 0.00 0.00 0.00 32 1006.7
20260509182517 49 0 7.0 15.0 0.00 0.00 0.00 30 1006.7
20260509181517 50 0 5.0 14.0 0.00 0.00 0.00 29 1006.5
20260509180517 49 45 9.0 22.0 0.00 0.00 0.00 30 1006.2
20260509175517 47 0 6.0 16.0 0.00 0.00 0.00 33 1006.2
20260509174517 48 0 5.0 18.0 0.00 0.00 0.00 32 1006.1
20260509173517 48 90 4.0 12.0 0.00 0.00 0.00 32 1005.8
20260509172517 48 0 9.0 22.0 0.00 0.00 0.00 31 1005.6
20260509171517 47 0 6.0 15.0 0.00 0.00 0.00 34 1005.4
20260509170517 48 23 5.0 11.0 0.00 0.00 0.00 34 1005.2
20260509165517 48 23 6.0 15.0 0.00 0.00 0.00 33 1005.1
20260509164517 47 0 8.0 19.0 0.00 0.00 0.00 35 1004.9
20260509163537 48 0 7.0 18.0 0.00 0.00 0.00 35 1004.7
20260509162517 49 0 7.0 15.0 0.00 0.00 0.00 33 1004.5
20260509161537 50 338 9.0 22.0 0.00 0.00 0.00 31 1004.5
20260509160517 50 23 6.0 17.0 0.00 0.00 0.00 31 1004.1
20260509155537 51 45 8.0 21.0 0.00 0.00 0.00 31 1003.8
20260509154517 50 45 8.0 15.0 0.00 0.00 0.00 32 1003.9
20260509153517 49 23 6.0 20.0 0.00 0.00 0.00 34 1003.6
20260509152517 49 23 8.0 19.0 0.00 0.00 0.00 33 1003.6
20260509151517 50 0 6.0 18.0 0.00 0.00 0.00 34 1003.3
20260509150517 51 315 8.0 20.0 0.00 0.00 0.00 32 1002.9
20260509145517 50 45 7.0 16.0 0.00 0.00 0.00 32 1002.7
20260509144517 49 23 10.0 20.0 0.00 0.00 0.00 34 1002.7
20260509143537 50 0 7.0 22.0 0.00 0.00 0.00 34 1002.6
20260509142537 49 0 8.0 17.0 0.00 0.00 0.00 33 1002.3
20260509141516 48 338 10.0 18.0 0.00 0.00 0.00 34 1002.2
20260509140516 48 45 9.0 24.0 0.00 0.00 0.00 34 1002.1
20260509135517 47 338 5.0 16.0 0.00 0.00 0.00 37 1001.9
20260509134517 47 0 6.0 14.0 0.00 0.00 0.00 36 1001.7
20260509133517 47 315 9.0 17.0 0.00 0.00 0.00 36 1001.6
20260509132516 47 0 5.0 15.0 0.00 0.00 0.00 35 1001.6
20260509131537 48 315 6.0 19.0 0.00 0.00 0.00 34 1001.4
20260509130516 47 23 4.0 12.0 0.00 0.00 0.00 36 1001.5
20260509125537 46 45 4.0 15.0 0.00 0.00 0.00 36 1001.3
20260509124517 46 248 3.0 9.0 0.00 0.00 0.00 35 1001.4
20260509123516 47 338 7.0 14.0 0.00 0.00 0.00 34 1001.3
20260509122517 46 338 4.0 14.0 0.00 0.00 0.00 35 1001.3
20260509121516 45 23 4.0 14.0 0.00 0.00 0.00 35 1001.2
20260509120516 44 0 4.0 9.0 0.00 0.00 0.00 36 1001.0
20260509115517 44 338 3.0 9.0 0.00 0.00 0.00 36 1001.0
20260509114516 44 315 3.0 11.0 0.00 0.00 0.00 35 1000.9
20260509113536 43 338 3.0 10.0 0.00 0.00 0.00 36 1000.9
20260509112516 43 293 2.0 7.0 0.00 0.00 0.00 36 1000.7
20260509111516 43 315 2.0 4.0 0.00 0.00 0.00 35 1000.6
20260509110516 43 0 2.0 9.0 0.00 0.00 0.00 36 1000.5
20260509105516 43 45 2.0 7.0 0.00 0.00 0.00 35 1000.3
20260509104516 42 338 3.0 10.0 0.00 0.00 0.00 35 1000.4
20260509103516 43 293 3.0 8.0 0.00 0.00 0.00 34 1000.3
20260509102516 43 338 4.0 10.0 0.00 0.00 0.00 34 1000.2
20260509101516 43 315 2.0 8.0 0.00 0.00 0.00 34 1000.1
20260509100536 43 338 3.0 10.0 0.00 0.00 0.00 34 1000.0
20260509095536 43 338 3.0 9.0 0.00 0.00 0.00 34 999.9
20260509094516 43 338 2.0 8.0 0.00 0.00 0.00 33 999.8
20260509093516 43 0 3.0 9.0 0.00 0.00 0.00 33 999.9
20260509092516 44 23 3.0 8.0 0.00 0.00 0.00 33 999.9
20260509091516 44 293 3.0 10.0 0.00 0.00 0.00 32 1000.0
20260509090516 44 23 3.0 8.0 0.00 0.00 0.00 32 999.8
20260509085516 44 338 3.0 9.0 0.00 0.00 0.00 32 999.8
20260509084516 45 0 2.0 5.0 0.00 0.00 0.00 31 999.6
20260509083516 45 338 2.0 6.0 0.00 0.00 0.00 31 999.6
20260509082516 45 338 2.0 6.0 0.00 0.00 0.00 31 999.5
20260509081516 45 315 3.0 10.0 0.00 0.00 0.00 32 999.7
20260509080536 43 315 3.0 10.0 0.00 0.00 0.00 33 999.4
20260509075516 43 315 3.0 5.0 0.00 0.00 0.00 34 999.4
20260509074516 43 315 2.0 4.0 0.00 0.00 0.00 36 999.3